Le nostre stazioni meteo in Italia

Pubblicità
Il mio iltempo24.it
Passo Rolle, Italia (16021): Temperatura & dewpoint: 19.05.2019 08:00:00 - 25.05.2019 08:00:00 (CEST)Passo Rolle, Italia (16021): velocità del vento: 19.05.2019 08:00:00 - 25.05.2019 08:00:00 (CEST)Passo Rolle, Italia (16021): direzione del vento: 19.05.2019 08:00:00 - 25.05.2019 08:00:00 (CEST)Passo Rolle, Italia (16021): visibility: 19.05.2019 08:00:00 - 25.05.2019 08:00:00 (CEST)
Data & Tempo tt [°C] td [°C] ff [km/h] ff [kn] dd vv [km]
25.05.2019 08:00:00 - - - - - -
25.05.2019 07:00:00 - - - - - -
25.05.2019 06:00:00 - - - - - -
25.05.2019 05:00:00 5,2 3,9 13 7 SE 10
25.05.2019 04:00:00 - - - - - -
25.05.2019 03:00:00 - - - - - -
25.05.2019 02:00:00 6,0 3,3 4 2 N 10
25.05.2019 01:00:00 - - - - - -
25.05.2019 00:00:00 - - - - - -
24.05.2019 23:00:00 5,6 4,1 8 4 ESE 10
24.05.2019 22:00:00 - - - - - -
24.05.2019 21:00:00 - - - - - -
24.05.2019 20:00:00 6,8 4,0 21 11 SE 20
24.05.2019 19:00:00 9,0 5,0 21 11 SE 10
24.05.2019 18:00:00 10,0 5,0 26 14 SE 10
24.05.2019 17:00:00 9,0 4,2 18 10 SE 15
24.05.2019 16:00:00 12,0 3,0 21 11 SE 10
24.05.2019 15:00:00 11,0 -1,0 16 9 SSE 10
24.05.2019 14:00:00 11,4 -2,8 11 6 SE 50
24.05.2019 13:00:00 10,0 -6,0 8 4 SSE 10
24.05.2019 12:00:00 9,0 -5,0 8 4 NNE 10
24.05.2019 11:00:00 8,8 -3,1 4 2 ENE 50
24.05.2019 10:00:00 7,0 -2,0 8 4 NE 10
24.05.2019 09:00:00 6,0 0,0 4 2 N 10
24.05.2019 08:00:00 5,6 0,8 8 4 NNO 50
24.05.2019 07:00:00 4,0 -1,0 5 3 N 10
24.05.2019 06:00:00 3,0 -2,0 5 3 N 10
24.05.2019 05:00:00 3,4 -1,4 8 4 N 20
24.05.2019 04:00:00 - - - - - -
24.05.2019 03:00:00 - - - - - -
24.05.2019 02:00:00 4,4 3,1 5 3 N 10
24.05.2019 01:00:00 - - - - - -
24.05.2019 00:00:00 - - - - - -
23.05.2019 23:00:00 4,4 3,2 4 2 E 10
23.05.2019 22:00:00 - - - - - -
23.05.2019 21:00:00 - - - - - -
23.05.2019 20:00:00 6,8 4,8 16 9 ESE 25
23.05.2019 19:00:00 8,0 5,0 16 9 SE 10
23.05.2019 18:00:00 9,0 3,0 16 9 SE 10
23.05.2019 17:00:00 9,2 2,1 13 7 SE 50
23.05.2019 16:00:00 9,0 0,0 13 7 SE 10
23.05.2019 15:00:00 9,0 -1,0 13 7 SE 10
23.05.2019 14:00:00 8,8 -3,1 11 6 ESE 50
23.05.2019 13:00:00 9,0 -5,0 5 3 S 10
23.05.2019 12:00:00 8,0 -5,0 8 4 SE 10
23.05.2019 11:00:00 7,0 -5,0 4 2 N 50
23.05.2019 10:00:00 5,0 -4,0 8 4 NE 10
23.05.2019 09:00:00 4,0 -3,0 5 3 N 10
23.05.2019 08:00:00 3,6 -2,8 8 4 N 50
23.05.2019 07:00:00 3,0 -2,0 9 5 N 10
23.05.2019 06:00:00 2,0 -1,0 9 5 NNO 10
23.05.2019 05:00:00 2,4 -1,4 11 6 N 12
23.05.2019 04:00:00 - - - - - -
23.05.2019 03:00:00 - - - - - -
23.05.2019 02:00:00 2,6 -0,8 8 4 N 10
23.05.2019 01:00:00 - - - - - -
23.05.2019 00:00:00 - - - - - -
22.05.2019 23:00:00 3,4 2,4 0 0 N 10
22.05.2019 22:00:00 - - - - - -
22.05.2019 21:00:00 - - - - - -
22.05.2019 20:00:00 7,8 -3,1 8 4 ONO 35
22.05.2019 19:00:00 7,0 -3,0 21 11 ONO 10
22.05.2019 18:00:00 8,0 -3,0 18 10 O 10
22.05.2019 17:00:00 7,6 -4,2 18 10 NNO 50
22.05.2019 16:00:00 9,0 -5,0 9 5 N 10
22.05.2019 15:00:00 8,0 -5,0 9 5 NNO 10
22.05.2019 14:00:00 7,6 -4,5 9 5 NNO 50
22.05.2019 13:00:00 7,0 -5,0 9 5 NNO 10
22.05.2019 12:00:00 5,0 -3,0 22 12 ONO 10
22.05.2019 11:00:00 5,4 -2,7 21 11 O 50
22.05.2019 10:00:00 5,0 -3,0 21 11 O 10
22.05.2019 09:00:00 5,0 -3,0 9 5 NNO 10
22.05.2019 08:00:00 4,6 -3,0 8 4 NNO 50
22.05.2019 07:00:00 2,0 -2,0 13 7 NNO 10
22.05.2019 06:00:00 2,0 -2,0 15 8 NNO 10
22.05.2019 05:00:00 2,0 -0,1 11 6 N 10
22.05.2019 04:00:00 - - - - - -
22.05.2019 03:00:00 - - - - - -
22.05.2019 02:00:00 2,0 -0,4 15 8 NNO 0,1
22.05.2019 01:00:00 - - - - - -
22.05.2019 00:00:00 - - - - - -
21.05.2019 23:00:00 3,0 2,0 15 8 NO 0,2
21.05.2019 22:00:00 - - - - - -
21.05.2019 21:00:00 - - - - - -
21.05.2019 20:00:00 4,0 -1,0 11 6 N 10
21.05.2019 19:00:00 5,0 -3,0 15 8 ONO 10
21.05.2019 18:00:00 6,0 -2,0 13 7 NNO 10
21.05.2019 17:00:00 6,6 -3,1 13 7 NNO 30
21.05.2019 16:00:00 7,0 -2,0 15 8 O 10
21.05.2019 15:00:00 6,0 -1,0 5 3 NNO 10
21.05.2019 14:00:00 4,4 -0,8 8 4 N 75
21.05.2019 13:00:00 5,0 0,0 9 5 NO 10
21.05.2019 12:00:00 3,0 -1,0 9 5 N 10
21.05.2019 11:00:00 4,0 -2,2 16 9 O 75
21.05.2019 10:00:00 3,0 0,0 16 9 N 10
21.05.2019 09:00:00 2,0 1,0 5 3 N 10
21.05.2019 08:00:00 1,8 0,5 5 3 NNO 75
21.05.2019 07:00:00 1,0 0,0 9 5 NNO 10
21.05.2019 06:00:00 1,0 0,0 9 5 O 0,3
21.05.2019 05:00:00 1,0 0,3 9 5 N 0,1
21.05.2019 04:00:00 - - - - - -
21.05.2019 03:00:00 - - - - - -
21.05.2019 02:00:00 1,0 -0,3 9 5 N 0,1
21.05.2019 01:00:00 - - - - - -
21.05.2019 00:00:00 - - - - - -
20.05.2019 23:00:00 0,4 -1,1 8 4 NNO 0,1
20.05.2019 22:00:00 - - - - - -
20.05.2019 21:00:00 - - - - - -
20.05.2019 20:00:00 1,8 0,8 4 2 N 0,1
20.05.2019 19:00:00 2,0 1,0 5 3 ONO 0,3
20.05.2019 18:00:00 3,0 0,0 8 4 SE 0,4
20.05.2019 17:00:00 4,2 0,0 0 0 N 0,8
20.05.2019 16:00:00 4,0 2,0 2 1 ONO 0,6
20.05.2019 15:00:00 4,0 1,0 4 2 NNO 0,6
20.05.2019 14:00:00 4,4 0,4 2 1 ESE 0,9
20.05.2019 13:00:00 4,0 0,0 4 2 ESE 0,9
20.05.2019 12:00:00 - - - - - -
20.05.2019 11:00:00 3,0 1,2 5 3 SE 0,6
20.05.2019 10:00:00 - - - - - -
20.05.2019 09:00:00 2,0 0,0 5 3 SE 0,3
20.05.2019 08:00:00 0,0 -1,2 4 2 E 0,3
20.05.2019 07:00:00 - - - - - -
20.05.2019 06:00:00 - - - - - -
20.05.2019 05:00:00 1,2 0,4 4 2 E 0,3
20.05.2019 04:00:00 - - - - - -
20.05.2019 03:00:00 - - - - - -
20.05.2019 02:00:00 - - - - - -
20.05.2019 01:00:00 - - - - - -
20.05.2019 00:00:00 - - - - - -
19.05.2019 23:00:00 1,2 0,5 4 2 SSO 0,3
19.05.2019 22:00:00 - - - - - -
19.05.2019 21:00:00 - - - - - -
19.05.2019 20:00:00 1,8 0,9 8 4 E 0,3
19.05.2019 19:00:00 3,0 1,0 8 4 E 0,6
19.05.2019 18:00:00 3,0 2,0 5 3 E 0,6
19.05.2019 17:00:00 3,8 1,4 4 2 E 0,9
19.05.2019 16:00:00 - - - - - -
19.05.2019 15:00:00 - - - - - -
19.05.2019 14:00:00 4,8 1,3 11 6 ESE 2,0
19.05.2019 13:00:00 - - - - - -
19.05.2019 12:00:00 - - - - - -
19.05.2019 11:00:00 4,2 0,0 0 0 N 4,0
19.05.2019 10:00:00 - - - - - -
19.05.2019 09:00:00 3,0 0,0 4 2 N 2,0
19.05.2019 08:00:00 2,2 -0,7 5 3 SO 0,9

tt = Temperatura
td = dewpoint
ff = velocità del vento
dd = direzione del vento
vv = visibility

Stazioni seguenti

WeatherPro
AMSI
MeteoEarth